Theta_e
327 326 324 322 324 327 328 327 326 323 321 319 319 320 320 317 312 309 308 307 307 305 305 305 306 307 308 307 306 304 303 304 304 305 306 307 307 307 306 306 306 309 314 317 318 319 319 317 317 319 319 319 318 317 317 316 317 317 317 317 317 318 317 314 314 313 310 308 308 308 308 309 311 311 311 310 310 310 310 310 311 311 311 311 311
326 326 324 323 325 327 327 326 324 322 321 320 320 320 319 316 312 309 307 307 305 304 304 304 305 306 306 305 304 304 305 306 306 307 308 309 309 309 308 308 308 308 310 314 315 317 319 318 317 317 317 318 317 316 315 315 315 316 316 317 317 318 318 315 313 314 312 309 308 308 309 310 310 311 311 311 311 310 310 310 310 310 310 310 311
326 325 324 323 325 325 326 325 323 322 321 320 321 321 320 317 315 310 307 306 305 304 304 304 304 305 305 305 305 305 306 307 308 308 309 309 309 309 309 309 309 309 309 309 311 313 315 317 317 317 317 317 317 317 316 316 316 315 315 316 316 317 319 316 313 313 313 311 309 308 309 310 310 310 310 311 311 311 310 310 310 310 310 309 310
326 326 325 324 324 324 325 324 323 322 321 322 322 320 320 319 316 311 307 306 305 305 305 305 305 305 306 307 307 307 308 308 309 309 309 309 309 309 309 309 310 310 309 309 309 310 312 314 315 316 316 315 315 316 315 314 314 314 314 315 316 318 318 315 313 313 313 311 310 308 310 311 311 311 310 310 311 311 311 311 310 310 310 309 310
325 326 325 325 323 323 324 324 322 321 322 322 320 319 320 319 315 310 308 307 305 306 307 306 306 307 307 308 308 308 308 308 308 309 309 310 311 312 313 313 314 314 312 311 310 309 310 312 313 314 314 314 313 313 313 313 313 314 314 315 316 317 316 314 314 314 313 312 310 310 311 311 312 312 311 310 310 311 311 311 311 311 311 310 310
325 325 325 324 322 322 324 324 321 321 323 322 320 319 317 314 312 311 311 310 307 306 307 307 308 308 308 309 309 309 309 309 309 309 309 310 311 314 317 317 317 316 316 315 314 312 311 312 312 312 313 313 313 313 313 313 314 314 314 314 314 314 314 314 315 315 314 313 312 312 312 311 312 313 312 310 310 311 312 312 312 312 312 311 311
326 325 324 324 323 323 324 323 320 321 322 319 316 315 312 311 313 314 314 312 309 307 307 307 308 308 308 309 310 310 310 310 311 311 312 312 312 314 317 318 317 316 316 317 316 316 316 316 316 315 313 313 313 313 313 313 313 314 314 314 314 314 314 314 314 315 315 314 314 313 312 312 313 313 312 311 311 311 312 312 313 313 312 312 311
326 324 323 324 323 323 323 322 320 320 319 315 312 312 311 313 317 317 315 313 311 309 308 307 307 308 308 310 311 312 313 313 313 314 316 316 315 315 316 317 318 317 317 317 317 317 317 318 319 318 317 316 314 314 314 314 314 313 314 314 314 314 315 315 315 316 316 315 314 313 313 313 313 313 313 312 311 312 313 313 313 313 313 312 312
325 324 324 324 324 323 322 321 320 320 318 315 312 312 314 317 317 315 313 312 312 311 309 307 308 309 310 312 314 315 316 317 318 318 319 319 318 317 317 317 318 318 317 317 317 318 318 318 319 319 319 319 317 316 316 316 316 315 314 314 315 315 315 316 316 316 316 316 315 315 315 314 314 314 314 314 313 313 314 314 314 314 313 313 313
324 324 324 324 324 325 323 322 321 319 316 313 311 314 318 319 315 313 313 313 312 311 309 308 310 312 314 316 317 317 319 320 320 320 320 320 319 319 318 318 319 318 318 318 318 318 318 318 319 319 320 319 319 318 318 318 318 317 315 315 315 315 315 316 316 316 316 316 316 316 316 316 315 315 315 315 315 315 314 314 314 314 314 313 313
324 323 323 324 324 325 323 322 321 319 317 315 315 318 318 316 313 314 314 313 311 309 308 308 310 313 315 317 317 317 318 319 320 321 320 319 319 319 319 318 319 319 319 319 318 317 317 317 318 318 318 318 318 319 319 319 319 318 316 316 315 315 315 315 315 315 315 316 316 316 316 316 315 315 315 315 315 315 314 314 314 314 313 313 313
324 324 323 323 323 323 323 322 321 321 321 319 318 318 316 314 313 313 311 310 308 307 307 308 310 313 315 317 316 315 316 318 320 320 320 319 319 319 319 318 318 319 320 320 319 318 317 317 317 317 317 317 317 318 319 319 319 319 318 317 316 315 315 315 315 315 315 316 316 316 315 315 315 314 314 314 314 314 314 314 314 313 313 313 312
323 323 324 324 323 322 322 321 321 321 320 319 319 318 318 317 315 313 312 310 307 307 308 310 312 315 318 318 317 316 316 318 320 320 320 320 320 319 319 318 317 317 318 319 319 319 318 317 317 317 317 317 317 318 319 319 319 319 318 318 317 316 316 315 315 315 314 313 313 313 312 312 312 313 313 314 314 314 313 313 313 312 312 312 312
322 323 323 323 323 322 321 321 320 320 320 320 320 320 320 320 318 317 316 314 311 311 312 312 314 317 318 319 319 318 318 318 320 320 320 320 320 319 318 317 316 317 317 317 318 318 317 316 316 317 318 317 318 318 318 318 318 318 318 318 317 315 312 311 309 308 307 306 306 306 307 308 309 311 312 312 313 313 313 313 313 313 313 312 312
321 321 321 321 321 321 321 321 321 321 321 321 320 321 321 320 319 319 319 318 316 315 316 317 317 318 319 320 320 319 319 319 320 320 320 320 320 319 318 317 317 317 316 316 316 316 316 315 316 317 318 317 317 317 317 318 318 318 317 316 312 308 306 304 304 303 303 303 303 304 304 305 306 308 309 311 312 313 313 312 312 311 309 308 307
320 321 321 320 320 320 321 322 322 321 322 321 320 320 320 319 319 319 319 320 319 317 318 319 319 320 320 319 319 319 319 319 320 319 320 319 319 319 318 318 318 317 317 316 316 316 316 316 317 317 317 317 317 317 317 317 316 314 312 309 306 304 303 303 303 303 303 303 303 303 303 303 303 304 306 307 307 308 307 306 305 303 302 301 300
316 318 319 318 319 320 320 321 321 321 321 321 321 321 320 320 320 319 319 320 320 319 318 318 319 319 318 318 317 318 318 319 319 319 319 319 319 319 318 318 317 317 316 316 316 315 316 317 317 317 315 315 314 314 314 313 312 309 308 307 305 303 302 302 302 303 304 304 304 304 303 303 303 303 303 303 303 303 302 301 300 299 299 299 299
312 314 314 314 314 315 317 318 319 319 320 320 320 320 320 320 320 320 319 320 320 320 319 319 319 319 320 319 319 319 319 319 319 319 319 319 319 318 318 317 317 317 317 316 315 315 317 317 317 316 314 313 312 311 310 309 309 308 307 307 305 302 301 302 303 303 304 304 304 304 304 304 304 304 304 304 303 302 300 300 299 299 299 298 298
309 311 312 312 311 312 313 314 315 315 316 316 317 318 319 319 319 320 319 319 319 319 319 319 319 319 320 319 319 319 319 318 318 318 318 317 317 317 316 316 316 317 317 316 315 315 316 317 316 315 314 314 313 312 310 310 309 307 305 304 302 301 302 302 303 303 304 305 306 306 306 306 306 306 304 303 301 300 300 299 299 298 298 298 298
306 307 308 310 310 310 311 312 312 312 313 313 314 315 316 317 317 317 317 317 317 317 317 317 317 317 317 317 317 317 316 316 316 316 316 316 316 316 316 316 316 317 316 316 315 315 315 316 316 315 315 315 314 313 313 311 309 305 302 301 301 301 301 302 302 303 304 306 306 307 306 306 305 303 302 301 300 300 299 299 298 298 298 298 298
307 307 307 307 308 309 310 310 310 311 311 311 312 312 313 314 314 315 315 315 315 315 315 315 314 314 314 314 314 314 315 315 315 315 315 316 315 315 315 315 315 316 316 316 315 315 315 315 315 315 315 315 314 314 313 309 304 302 301 301 300 300 301 301 302 302 303 304 305 304 304 303 302 301 300 300 299 299 299 298 298 298 298 298 298
308 308 308 308 308 309 309 310 310 310 310 310 310 311 311 311 312 313 314 314 314 314 314 314 313 313 313 313 313 313 314 314 314 314 315 315 314 314 314 313 313 313 314 314 314 313 314 314 315 315 314 314 314 313 309 304 302 301 300 300 300 300 300 300 300 300 301 301 301 301 301 300 300 300 299 299 299 299 298 298 298 297 297 297 297
306 307 308 308 309 309 309 309 309 310 310 310 310 311 311 311 311 311 312 312 312 312 312 313 313 314 314 313 313 313 314 314 313 312 313 314 314 314 313 313 312 311 310 310 309 310 312 314 314 313 312 312 311 309 304 302 301 301 300 300 300 300 300 299 299 299 299 299 299 300 300 299 299 299 299 299 298 298 298 297 297 297 297 296 296
303 304 304 305 306 307 307 307 308 308 309 309 309 310 310 311 311 311 311 311 311 310 310 311 312 312 312 312 312 312 313 314 314 313 313 313 313 313 312 311 308 306 306 306 306 310 313 313 312 310 309 309 308 304 302 303 303 301 300 300 300 299 299 299 298 298 298 298 299 299 299 299 299 299 299 298 298 297 297 297 296 296 296 295 294
300 300 301 301 302 302 303 304 305 305 305 306 306 307 308 309 310 310 309 309 310 310 310 310 310 310 310 310 311 311 311 312 313 314 314 313 312 311 310 307 303 303 306 308 310 312 314 313 313 311 309 307 304 302 303 305 303 301 300 299 298 298 298 298 298 298 298 298 299 299 299 299 299 298 298 297 297 297 296 296 296 295 295 294 293
297 297 298 298 298 298 299 299 300 300 300 300 301 302 303 304 305 306 306 306 306 307 307 308 309 309 309 310 310 310 310 310 311 312 312 313 313 312 308 304 301 302 306 310 311 313 313 313 313 311 308 305 304 303 305 306 303 300 299 298 298 298 297 297 297 297 298 298 299 299 299 298 297 297 297 296 296 296 295 295 295 294 294 293 293
296 296 296 296 296 296 296 297 297 297 297 297 297 297 298 298 299 300 301 301 301 301 302 303 304 305 307 308 308 308 309 309 310 310 310 311 312 310 308 304 301 301 303 305 307 309 310 312 312 310 307 305 303 303 304 304 301 299 298 298 298 298 297 297 298 298 298 298 298 298 298 297 296 296 296 295 295 295 295 294 293 293 293 293 293
296 296 296 296 296 296 296 296 296 296 296 296 296 296 296 296 296 297 297 298 298 298 299 300 300 301 303 305 305 305 306 307 308 308 309 309 309 309 308 306 303 301 301 302 303 305 307 310 311 309 307 304 302 302 303 301 299 299 299 298 298 298 298 298 298 298 298 298 298 297 297 296 296 295 295 295 295 294 294 293 292 292 292 293 293
295 295 295 296 296 296 296 296 296 296 296 295 296 296 296 296 296 296 297 297 298 298 298 299 299 300 300 301 303 303 304 305 306 306 306 308 308 308 309 308 306 305 303 302 303 304 306 309 310 308 305 303 302 302 302 301 299 299 300 299 299 298 298 298 298 298 298 298 297 297 296 295 295 295 294 294 294 293 293 292 291 291 292 292 292
294 294 294 294 294 295 295 295 295 295 295 295 295 295 295 295 295 296 296 296 297 297 298 298 299 299 299 300 300 301 302 303 304 304 305 307 308 308 308 309 309 308 306 303 303 304 304 306 307 306 304 302 302 302 301 300 300 300 300 300 299 299 299 299 298 298 298 298 297 296 296 295 295 294 294 294 293 292 291 291 291 291 291 291 291
294 294 293 293 294 294 294 294 294 294 294 294 294 295 295 295 295 295 295 295 296 297 297 298 298 298 299 299 299 300 300 301 302 302 303 305 306 307 308 307 306 306 305 304 304 304 303 303 305 305 304 302 301 301 300 299 300 300 300 299 299 299 299 299 299 298 298 297 296 296 295 295 294 294 294 293 292 291 290 290 290 290 290 290 290
293 293 293 293 293 293 294 294 294 294 294 294 295 295 296 296 295 295 295 295 295 295 296 296 297 298 298 298 299 299 299 300 301 301 302 303 304 305 306 305 304 305 305 305 305 304 303 303 304 305 304 303 302 302 301 300 300 300 300 300 300 299 299 299 298 298 298 297 296 295 295 295 294 294 293 292 291 290 290 290 289 289 289 290 290
293 293 293 293 293 293 294 294 294 294 295 295 296 296 295 295 295 295 295 296 296 296 296 296 296 296 297 297 298 298 299 300 300 301 302 303 304 305 305 305 305 305 305 304 304 304 303 303 303 304 304 304 304 303 302 301 300 300 300 300 300 299 299 298 298 298 297 297 296 295 295 295 294 293 292 291 290 290 289 289 289 289 289 290 290
293 293 293 293 293 294 294 294 294 295 295 295 295 294 294 294 294 294 294 295 295 296 296 296 296 296 296 296 297 297 298 299 300 301 302 304 305 306 306 306 306 305 305 305 305 305 304 303 303 304 304 304 304 303 303 301 300 300 300 299 299 299 299 298 298 298 297 296 296 295 295 294 293 292 291 290 290 290 289 289 289 289 289 290 289
294 294 294 294 294 294 294 294 295 295 295 294 294 293 293 293 293 293 294 294 294 294 295 295 295 296 296 297 296 297 297 298 299 300 301 303 305 306 306 306 305 305 305 305 305 305 305 305 304 303 303 303 303 303 302 301 300 300 300 299 299 299 299 298 298 297 297 296 295 295 294 293 292 291 291 290 290 290 290 289 289 289 289 290 289
295 294 294 294 294 295 295 295 295 295 294 294 294 293 293 293 294 294 294 294 294 294 295 295 295 295 296 297 297 297 298 299 299 299 300 302 303 304 305 304 304 304 304 305 305 305 305 305 304 303 302 302 303 303 302 300 300 300 299 299 299 299 299 298 297 297 296 296 295 294 294 293 292 291 291 290 290 290 290 289 289 289 289 289 289
295 294 294 294 295 295 294 294 295 294 294 294 293 293 294 294 294 294 294 294 294 294 295 295 295 295 296 297 298 298 298 299 299 300 301 301 302 303 303 304 304 304 304 305 304 304 304 304 304 302 302 302 303 301 300 299 299 299 299 299 299 299 298 298 297 296 296 295 294 294 293 292 291 291 291 291 291 290 290 289 289 289 289 289 289
294 294 295 295 295 294 294 294 294 294 294 293 294 294 294 294 294 294 294 294 293 293 293 294 294 295 296 297 298 298 299 299 299 300 300 301 301 301 302 303 304 304 304 304 304 304 304 304 303 301 301 301 301 299 299 299 300 300 300 300 299 298 298 297 296 296 295 295 294 293 292 291 291 291 291 291 291 290 289 289 289 289 289 289 289
295 295 294 295 294 294 294 294 294 294 294 293 293 294 294 294 294 294 293 293 292 292 292 293 294 295 296 297 298 298 298 299 299 299 299 300 300 300 300 301 301 302 303 303 303 303 303 303 301 300 300 300 299 299 300 300 300 300 300 300 299 298 297 297 296 296 295 295 294 292 291 291 291 291 291 291 290 289 289 289 289 289 288 288 289
295 295 294 294 294 294 294 294 293 293 293 293 293 293 293 293 293 293 293 292 292 291 292 293 294 295 296 297 298 298 297 298 298 298 298 299 299 299 299 299 298 299 300 300 300 301 301 300 300 299 299 300 300 300 299 299 300 300 300 299 299 298 297 296 296 295 294 294 292 291 291 291 291 291 291 290 289 288 288 288 288 288 288 289 289
295 295 295 294 294 293 293 293 293 292 292 292 292 293 293 293 293 292 292 292 291 291 291 293 294 295 295 296 297 297 297 297 298 298 298 298 298 298 298 297 297 298 298 299 299 299 299 299 299 299 299 300 300 299 298 299 300 299 298 298 297 297 296 296 295 294 293 292 291 291 290 291 291 291 290 289 288 288 288 288 288 288 289 289 290
295 295 295 295 294 293 293 293 292 292 292 292 292 293 293 293 292 292 292 292 292 292 292 292 293 294 294 295 296 296 296 297 297 297 297 297 297 297 297 297 297 297 297 298 298 298 298 299 299 299 299 299 299 299 299 298 298 297 296 296 296 296 295 295 294 293 292 291 291 291 291 291 290 290 289 288 287 287 288 288 288 288 289 289 290
295 295 295 294 294 293 293 293 293 293 293 292 292 292 293 293 292 292 292 293 293 293 293 293 293 293 294 295 295 295 296 297 297 296 296 296 296 296 297 297 297 297 297 297 298 298 298 298 298 299 299 299 298 298 298 297 296 296 296 296 296 295 294 293 292 292 291 291 291 291 291 290 289 288 287 287 287 287 288 288 288 289 290 290 290
295 295 295 294 294 293 293 293 293 293 293 293 292 292 292 293 292 292 292 293 292 293 293 293 293 293 294 294 295 295 296 296 296 296 296 296 296 296 296 297 297 298 298 298 298 298 298 298 298 298 298 298 297 296 296 295 295 295 295 295 294 293 292 292 291 291 291 291 291 291 290 289 288 287 287 287 287 287 288 288 288 289 290 290 290
295 295 295 294 294 294 294 294 294 293 293 293 293 292 292 292 292 292 292 292 292 292 292 292 292 293 293 294 294 295 295 295 295 295 295 295 296 296 297 297 297 298 298 298 298 298 297 297 297 297 296 296 295 295 294 294 295 294 294 293 292 292 291 291 291 291 291 291 290 289 288 288 288 288 287 287 287 288 288 288 288 289 290 289 289
295 294 294 294 294 294 294 294 294 294 294 294 293 293 292 292 292 293 293 292 291 291 291 291 291 292 292 293 293 294 294 294 294 294 295 295 296 297 297 296 297 297 297 297 297 297 296 296 296 296 295 295 295 295 295 295 294 294 293 292 292 292 292 292 292 291 290 289 288 288 288 288 288 288 288 287 287 287 288 288 288 289 289 289 289
294 294 294 294 295 295 294 294 294 295 294 294 293 293 292 291 291 292 293 293 292 291 291 291 292 292 292 292 293 293 294 294 294 294 294 295 296 296 296 296 296 296 296 296 295 295 295 295 295 295 295 295 295 295 294 294 293 293 293 293 293 292 292 291 290 289 288 288 288 288 288 289 289 289 289 288 287 287 287 288 288 289 289 289 289
295 295 295 295 295 295 295 294 294 295 295 294 293 293 292 292 291 291 292 293 292 291 291 291 292 292 292 292 293 293 293 293 293 293 293 294 294 294 295 295 295 294 294 294 294 294 294 294 294 294 294 293 293 293 293 293 293 293 293 293 292 292 291 290 289 288 288 288 288 288 288 289 289 289 289 289 289 288 287 287 288 289 289 289 289
295 295 295 295 295 295 295 294 294 294 294 294 293 293 292 292 291 291 291 292 292 292 291 291 291 292 292 292 292 292 292 292 292 292 293 293 293 293 293 293 293 293 293 293 293 293 293 292 292 292 292 292 292 292 292 292 292 292 292 292 291 291 290 289 288 288 288 288 288 288 289 289 289 289 289 289 289 289 287 286 287 288 289 289 288
295 295 295 295 295 295 295 295 295 295 294 294 293 293 292 292 291 290 290 291 291 291 291 291 291 291 292 292 292 292 292 292 292 292 292 292 292 292 292 292 292 292 292 292 292 292 292 292 292 292 293 292 292 292 292 292 291 291 291 290 289 289 288 288 288 288 289 289 289 289 289 289 289 289 289 289 289 289 288 287 287 288 289 289 289
294 295 295 295 295 294 295 295 295 295 294 294 293 293 292 291 291 290 290 290 290 290 291 291 291 292 292 292 292 291 292 292 292 292 292 291 291 291 291 292 292 292 292 292 292 292 293 293 293 293 293 292 292 291 291 291 290 289 289 288 288 288 288 288 289 289 289 289 289 289 288 288 288 288 288 289 289 289 288 288 287 288 288 289 289
Wind_Speed
29 28 27 27 26 22 20 19 17 15 14 15 14 13 10 8 9 10 11 11 11 12 13 13 12 11 10 9 9 10 12 13 13 13 13 13 13 13 12 11 10 12 14 15 14 12 10 9 9 10 10 10 11 11 10 9 9 10 10 11 12 10 8 5 1 3 7 9 9 9 10 9 7 8 8 7 7 7 8 7 6 5 4 3 3
30 28 28 28 25 23 22 20 17 15 15 15 15 13 10 9 10 10 11 10 11 12 14 14 13 12 12 13 13 13 14 14 14 13 13 12 13 12 12 11 11 11 13 14 14 13 12 11 10 10 10 10 11 11 11 10 10 10 10 11 13 13 11 9 5 2 4 8 9 9 9 9 8 7 7 7 6 6 5 5 4 3 1 2 3
29 28 29 28 26 24 23 20 18 16 16 16 15 13 11 10 9 9 9 10 12 13 15 16 15 14 15 16 16 15 15 15 14 13 13 11 11 10 10 10 9 9 10 10 11 12 12 12 11 11 11 11 12 12 12 12 12 12 12 10 12 14 14 11 8 6 6 7 9 9 8 8 7 6 5 5 5 5 4 3 3 2 2 3 4
28 28 29 28 27 25 24 22 19 17 17 18 16 14 13 10 8 9 11 12 13 15 17 17 17 17 18 18 18 17 16 16 15 13 12 11 10 10 10 9 8 8 8 7 8 9 10 11 12 12 12 11 12 13 13 12 12 11 11 11 13 16 17 13 9 8 8 8 9 9 7 6 5 6 6 5 5 5 4 4 5 5 6 6 7
28 28 29 28 27 26 26 25 21 19 20 19 17 16 14 10 9 10 11 12 13 15 17 18 18 19 19 18 18 18 17 16 14 13 12 11 10 10 10 9 7 7 7 7 8 9 9 10 11 11 12 11 11 12 11 10 9 9 10 11 13 16 16 13 10 8 7 8 9 9 9 7 5 5 7 8 6 5 5 5 5 6 8 9 10
28 28 27 28 28 28 28 27 24 23 23 20 18 18 16 13 13 12 12 12 13 15 17 18 18 18 19 18 18 17 16 15 13 12 12 11 11 11 9 8 7 6 6 7 8 9 9 10 10 11 11 10 10 11 11 10 8 9 10 12 14 15 15 12 10 8 7 7 8 9 9 8 7 6 7 9 8 7 6 6 6 7 8 10 11
27 26 25 26 28 28 28 26 24 25 26 23 20 19 18 18 16 15 14 13 14 15 17 18 18 18 19 18 17 16 15 14 13 12 11 11 12 12 10 9 8 7 8 8 9 10 10 10 10 11 12 12 11 11 12 12 10 10 12 13 14 14 13 12 10 9 8 8 9 9 9 9 8 7 7 9 10 9 9 8 8 8 8 9 11
23 23 24 26 28 28 26 23 22 26 27 26 25 24 23 22 19 18 18 18 17 16 16 18 19 19 19 18 16 16 16 15 13 11 10 10 12 13 13 12 10 10 10 11 12 12 12 12 12 12 12 12 12 12 12 12 12 12 12 12 12 12 12 11 10 10 10 10 10 10 10 10 10 9 9 10 11 12 11 10 10 10 9 10 11
19 25 28 28 28 27 25 24 25 27 26 28 32 29 25 23 21 20 20 21 21 20 18 19 21 21 20 19 18 17 17 16 14 12 11 10 11 13 14 14 14 13 13 13 14 15 16 16 15 15 15 14 14 14 14 12 12 12 12 12 11 11 11 11 11 11 11 11 12 12 12 13 13 12 12 12 13 13 13 12 12 12 12 13 14
14 20 25 26 25 24 23 24 24 24 24 28 32 30 25 24 22 22 22 22 24 24 22 21 22 22 22 21 20 19 18 17 15 14 12 12 12 14 15 16 17 17 16 16 16 17 18 19 19 19 19 17 16 17 16 14 13 12 13 14 13 13 12 11 11 11 12 12 13 13 13 13 13 14 14 14 14 14 14 14 14 15 15 15 15
9 11 14 19 22 21 21 22 23 24 25 27 29 28 26 26 25 23 24 25 26 26 24 22 23 23 22 22 21 20 19 18 16 15 14 14 14 15 16 17 19 20 20 19 19 19 19 21 22 22 21 20 19 19 18 16 14 13 14 15 16 16 14 13 13 13 13 13 14 14 13 14 14 15 15 15 15 15 15 15 16 16 16 17 17
6 7 9 14 19 20 20 22 24 24 24 24 25 25 24 24 24 23 23 24 25 26 24 23 23 23 22 22 22 21 20 19 17 16 16 15 16 17 17 19 20 21 22 22 21 21 21 22 23 23 23 22 20 20 19 18 16 15 15 16 16 17 17 16 15 15 15 16 16 16 16 16 16 16 16 16 16 16 16 17 17 17 18 18 19
6 6 7 10 15 17 18 20 20 20 20 21 21 21 20 21 21 21 20 21 23 24 23 23 24 24 23 22 22 21 20 19 18 18 18 18 18 19 19 19 20 21 22 23 23 23 24 24 24 23 23 22 21 19 19 19 18 18 17 16 16 16 17 17 17 16 16 16 16 16 16 15 15 15 15 15 16 17 18 18 19 19 19 20 22
9 7 7 8 11 14 17 19 19 19 20 20 20 20 20 20 20 20 19 19 22 22 22 24 26 25 24 23 21 21 20 19 19 19 19 19 19 20 20 20 20 20 22 24 25 25 25 24 23 23 23 22 20 20 19 19 19 18 17 16 15 15 15 15 15 15 14 14 14 14 13 14 14 15 16 17 18 19 20 20 21 21 22 23 25
12 10 8 7 6 7 11 15 18 18 18 19 20 20 20 19 20 20 20 22 23 23 24 24 25 25 26 25 23 22 20 20 20 20 20 20 20 20 21 21 21 22 23 25 25 23 21 20 20 21 21 20 20 20 20 19 18 17 16 15 13 13 13 13 12 12 12 12 12 12 13 14 15 16 17 18 19 20 20 20 21 21 22 23 24
13 11 10 9 8 6 6 8 13 14 14 14 16 17 16 16 18 20 21 23 22 23 24 24 24 26 27 25 24 23 22 22 22 22 22 22 22 22 22 22 23 23 24 24 22 20 18 17 18 18 18 18 19 19 18 17 16 14 13 13 12 11 11 11 11 11 10 10 10 11 11 12 13 13 14 15 16 17 17 18 18 19 19 19 21
15 13 11 10 9 7 6 6 8 9 9 9 9 10 11 13 15 18 20 21 19 17 19 22 23 23 22 20 20 21 21 21 22 22 22 22 22 23 23 24 24 23 22 21 20 18 17 17 17 16 16 17 17 17 16 15 14 13 13 12 11 11 11 10 10 10 9 9 9 9 9 10 10 11 12 13 14 15 16 16 17 17 18 19 20
19 16 14 14 12 11 8 6 6 7 7 7 7 8 9 10 11 12 14 15 14 12 13 16 18 18 17 16 18 19 19 19 20 21 22 22 23 23 23 23 22 21 21 20 19 19 18 17 16 16 16 16 15 15 15 14 13 12 12 13 12 11 10 10 9 9 10 10 10 9 9 10 11 11 13 14 15 15 16 16 16 18 18 19 20
18 15 13 13 12 12 11 9 8 8 8 7 6 6 6 7 8 9 9 8 8 9 10 12 14 15 15 15 17 17 18 19 20 21 22 22 22 22 21 21 21 20 21 21 20 20 19 17 16 16 16 15 15 15 15 13 12 12 12 13 12 11 10 10 10 10 11 11 10 10 10 11 12 13 14 15 15 15 16 16 16 17 17 18 19
13 12 9 8 8 8 8 8 8 8 8 7 6 5 4 4 5 7 8 8 8 8 9 10 11 12 13 14 15 16 17 18 18 19 19 19 19 19 19 20 21 21 22 22 22 21 20 19 18 18 17 17 16 15 15 14 13 13 13 12 11 10 10 10 11 12 12 11 11 11 12 13 14 15 15 15 15 16 16 17 17 17 17 18 19
8 7 6 4 4 4 4 5 5 4 4 4 4 3 3 3 4 5 6 7 8 8 8 9 9 9 9 11 12 12 13 15 15 15 15 16 17 17 18 19 21 21 22 22 22 23 23 22 20 19 18 18 18 17 16 15 14 14 13 11 11 11 11 11 11 12 12 12 12 13 13 14 14 15 15 16 16 17 17 17 18 18 19 19 21
6 6 5 4 3 2 1 0 0 0 0 0 0 1 2 3 4 5 6 7 8 9 10 11 10 10 9 9 10 11 11 12 12 13 13 15 17 18 19 20 21 22 22 23 24 24 24 23 21 21 20 20 20 19 18 17 16 14 13 12 11 11 10 10 11 11 12 13 13 13 14 14 14 15 15 16 16 16 17 17 18 19 20 22 23
10 10 10 10 9 9 8 7 6 6 6 6 6 6 6 7 7 7 7 8 9 9 10 11 12 12 12 11 10 11 12 14 14 14 15 17 19 21 22 22 23 24 26 26 26 25 24 23 21 21 22 22 22 21 20 18 16 14 13 12 11 11 10 11 11 12 13 14 14 14 14 14 14 15 15 15 15 16 17 18 19 20 22 24 26
11 13 13 14 14 15 15 14 14 14 13 13 13 12 12 12 13 12 12 11 11 10 10 11 12 13 13 13 12 12 14 17 18 18 18 20 22 24 25 25 25 26 27 28 27 26 24 23 22 22 23 23 23 22 20 17 15 14 13 12 11 11 11 11 12 13 14 14 14 13 13 13 13 13 14 15 16 17 18 19 20 22 24 26 28
11 12 13 14 15 15 16 17 18 19 19 19 19 18 18 18 20 21 20 18 17 17 17 17 16 15 15 15 15 14 15 17 20 22 23 23 25 27 27 27 27 26 25 26 27 26 25 24 24 24 26 25 24 23 21 18 17 15 13 12 11 11 11 11 12 13 13 13 12 12 11 11 12 12 13 14 15 17 18 20 22 24 26 27 28
11 11 11 12 13 14 15 15 16 16 17 19 19 20 20 20 22 24 24 22 22 22 23 24 23 22 22 21 20 19 19 19 20 22 23 26 30 32 31 29 27 26 27 28 27 26 27 27 28 31 30 28 26 26 24 21 18 16 14 12 10 10 10 11 11 11 10 10 10 9 9 10 11 11 12 14 15 17 18 20 22 24 26 26 26
13 13 12 12 12 13 13 13 13 12 12 13 15 16 18 19 21 23 24 24 24 23 24 26 26 25 24 26 26 25 23 23 23 24 25 27 29 28 27 30 30 27 27 28 29 29 29 29 31 32 30 28 28 27 25 22 19 16 14 12 10 9 9 8 8 7 7 7 7 8 8 9 10 11 12 14 15 17 19 21 22 23 23 23 23
15 16 15 15 15 15 15 14 14 13 12 12 13 14 15 17 18 20 21 23 24 24 23 24 24 22 22 24 27 27 26 25 26 27 28 29 29 24 20 25 31 31 29 28 28 29 29 30 33 33 31 31 29 23 19 18 16 14 11 10 8 6 6 6 6 6 6 7 7 7 8 9 10 11 12 14 15 17 19 20 20 20 20 21 22
16 16 16 16 17 17 17 17 17 16 15 14 14 14 14 16 17 17 18 19 21 22 22 22 22 22 21 21 22 25 27 26 26 25 24 25 27 25 21 22 27 32 33 31 27 26 24 26 30 33 32 28 22 17 15 15 13 10 8 5 3 4 5 5 6 6 7 6 6 6 7 9 10 11 12 14 15 17 18 18 19 19 20 22 22
16 15 15 15 15 15 16 16 16 16 16 15 14 13 12 14 16 18 18 18 20 22 23 23 23 23 23 22 20 21 24 25 25 24 22 19 19 20 20 21 24 25 25 23 23 24 25 25 27 29 28 24 17 14 13 12 10 8 6 3 2 5 7 7 7 6 6 6 6 6 8 9 10 11 13 14 15 16 17 17 18 20 21 22 23
14 13 12 11 11 11 12 12 12 12 12 13 13 13 11 8 9 13 18 20 21 22 24 25 24 25 26 26 24 22 22 23 23 24 23 20 17 16 16 19 20 19 16 15 17 21 25 29 29 28 26 23 18 15 14 13 11 9 9 8 9 10 9 8 7 7 7 7 7 7 8 9 11 12 13 14 15 15 16 17 19 21 22 22 23
8 7 6 6 6 7 8 9 10 10 11 12 13 14 14 12 8 6 9 14 17 20 23 25 26 27 27 27 27 26 24 22 22 23 23 23 21 18 18 19 19 17 17 18 18 19 22 28 30 29 27 25 22 19 18 18 17 16 15 14 12 11 10 8 7 7 8 8 8 9 10 10 11 13 14 15 15 15 16 17 19 21 22 22 22
3 4 4 4 4 5 7 9 10 10 11 12 13 14 16 16 15 11 8 8 10 13 16 20 23 26 26 27 27 28 26 23 21 21 22 23 23 22 23 23 21 19 19 20 20 20 22 25 28 29 30 30 29 26 24 22 20 19 17 15 11 10 10 8 7 8 10 9 10 11 11 11 13 14 15 14 14 15 16 18 20 22 23 22 19
6 6 5 6 7 8 8 9 9 10 11 13 14 15 16 17 18 18 16 14 12 11 12 14 17 20 22 23 24 26 26 24 22 20 20 21 22 23 24 24 22 21 22 22 21 21 22 24 27 29 32 33 34 33 29 25 21 19 18 17 15 13 11 10 9 10 11 10 11 11 11 12 14 14 14 14 14 16 17 19 21 23 22 20 15
7 6 6 8 9 9 9 9 9 10 12 13 14 16 17 17 18 19 19 19 19 18 16 16 16 16 17 17 19 20 21 22 21 20 20 19 19 21 23 24 25 25 26 25 23 22 22 24 26 28 31 33 34 33 30 26 22 19 18 18 16 13 11 11 12 12 11 11 11 11 11 13 13 13 12 13 15 16 18 20 21 22 20 16 12
7 6 8 10 10 10 10 10 10 10 11 13 14 16 17 18 19 20 20 20 20 20 19 19 18 17 15 14 15 17 18 18 19 18 18 19 19 20 20 21 21 23 24 23 21 20 21 22 23 27 31 33 33 31 29 27 24 21 19 18 16 13 13 13 13 11 11 11 11 11 11 12 11 11 12 13 15 16 18 19 21 20 16 12 10
6 7 8 10 10 10 9 9 9 9 10 12 14 16 17 19 20 21 20 20 19 18 17 17 17 16 14 12 13 15 17 18 18 16 16 17 18 19 18 17 16 17 19 19 20 20 21 22 24 27 31 32 29 26 25 26 25 22 20 18 15 14 14 15 13 11 11 11 11 11 11 10 10 10 12 13 15 16 18 19 19 17 12 8 9
6 7 8 8 9 8 8 8 9 9 10 12 14 15 17 19 21 21 20 19 16 13 12 12 13 12 11 11 12 13 15 16 16 16 15 15 16 16 15 16 17 17 17 18 19 19 20 22 24 26 26 26 24 22 23 24 25 22 19 17 16 16 16 15 12 11 11 11 11 11 10 9 10 11 13 14 15 16 17 17 17 14 10 8 10
6 7 7 7 8 9 9 9 9 9 10 12 14 16 17 20 21 21 20 18 13 8 7 9 10 10 10 10 11 12 13 13 15 16 15 16 17 15 14 15 18 18 16 16 17 17 19 21 22 23 24 23 22 21 20 20 20 19 18 17 17 17 16 13 11 10 10 10 10 10 9 10 11 13 14 15 15 16 16 16 14 12 10 10 9
5 6 6 6 9 11 11 9 8 9 11 12 14 16 17 20 22 22 19 16 11 6 5 7 8 9 10 10 10 10 11 13 15 16 16 16 17 15 13 12 12 11 12 13 15 17 18 19 19 22 24 23 21 19 18 17 17 18 18 18 16 15 13 10 9 9 9 10 10 10 10 12 13 14 15 15 15 15 14 14 13 10 9 9 8
3 4 4 7 10 11 9 8 9 11 12 13 14 15 17 21 23 21 18 15 11 7 5 6 8 9 9 9 9 10 11 12 14 15 14 13 13 13 13 11 8 7 7 8 10 11 13 15 19 23 24 24 23 19 16 17 19 20 18 17 13 11 9 8 8 8 9 9 10 10 12 14 14 14 14 14 14 13 13 13 11 8 7 8 9
3 3 3 6 9 9 8 9 11 14 15 15 15 16 18 21 22 20 16 13 11 9 7 7 8 10 10 9 9 10 11 11 10 9 7 5 5 6 9 9 8 7 7 6 7 7 8 11 16 18 16 17 18 14 11 13 18 17 14 11 8 7 7 7 8 9 9 9 10 12 14 14 14 13 13 13 13 12 12 11 8 5 6 8 10
2 1 2 5 6 6 8 10 12 14 16 17 18 17 18 20 20 17 13 13 13 12 11 9 8 8 8 8 8 8 7 7 5 3 3 4 5 3 2 2 3 4 5 5 6 6 6 7 11 11 8 7 8 6 6 10 15 13 9 6 6 6 7 8 8 9 9 10 12 13 14 13 13 12 12 12 11 11 10 9 5 3 5 9 10
4 2 1 4 4 4 6 9 11 12 15 17 19 18 16 17 18 16 13 14 16 17 16 15 13 10 7 7 8 8 6 3 2 1 2 4 4 3 2 1 2 3 4 3 3 2 2 0 3 5 6 5 6 8 10 12 12 9 6 5 5 6 8 8 8 9 10 12 12 12 12 12 11 11 10 10 9 9 9 7 4 3 6 9 9
6 5 2 2 3 4 5 6 8 10 12 15 17 18 16 15 16 17 16 16 17 19 19 20 20 18 15 12 11 10 9 7 4 3 5 5 4 3 2 3 5 6 7 7 7 7 7 6 5 6 8 10 11 12 12 12 10 8 6 5 6 7 8 8 9 11 11 11 11 10 10 9 9 9 9 8 8 8 8 7 5 5 7 9 8
4 4 2 1 2 4 5 6 7 9 11 12 15 17 16 14 13 15 16 18 19 20 20 21 21 21 19 17 14 12 12 10 9 8 7 6 6 6 5 5 7 8 9 9 9 8 7 8 9 9 10 10 10 9 9 7 6 5 5 6 7 7 8 9 9 9 9 9 9 9 8 7 7 7 7 7 7 7 8 8 7 6 8 9 8
2 1 0 1 3 4 5 6 7 8 10 11 13 15 16 15 13 12 14 17 18 18 19 19 19 19 19 17 15 13 13 11 10 9 7 5 7 9 8 7 8 10 10 9 10 10 10 10 9 8 8 8 7 6 6 6 5 5 5 5 6 7 8 8 8 8 8 8 8 8 7 6 6 6 6 7 6 7 8 8 8 6 7 8 7
1 1 1 2 4 5 6 7 8 8 9 10 11 13 15 15 13 10 10 14 16 16 16 16 15 15 15 15 14 13 12 11 9 8 7 6 9 10 10 9 9 11 11 11 11 10 10 10 9 8 9 9 9 8 7 6 6 5 6 6 7 7 7 7 7 7 7 7 7 7 7 6 7 6 6 7 7 7 7 7 7 6 6 7 7
3 3 3 4 5 6 6 6 7 8 8 9 10 12 14 14 13 8 6 9 12 13 12 13 13 12 12 12 12 11 11 10 10 10 10 10 10 10 10 10 10 10 10 10 11 11 11 10 10 9 9 8 6 5 5 5 6 6 6 6 6 6 6 6 7 7 6 6 6 6 6 7 7 7 7 7 7 7 7 6 5 6 6 7 7
6 6 5 5 6 7 7 6 6 8 8 8 9 11 12 13 13 10 5 4 6 8 9 9 10 11 10 10 9 9 9 9 9 9 9 9 9 9 9 9 9 9 9 9 10 10 10 9 8 7 5 4 2 1 2 3 4 4 4 4 5 5 6 6 6 6 5 5 5 5 6 7 7 8 8 8 8 7 8 7 6 7 8 8 9
7 7 6 6 8 8 7 5 5 7 8 8 8 9 10 10 11 11 8 2 1 2 4 6 7 8 8 8 8 8 8 8 8 8 7 7 6 5 4 4 5 5 5 6 6 6 6 5 4 3 2 1 1 1 1 1 2 2 3 4 5 5 5 6 6 5 5 6 6 7 8 8 8 8 8 8 8 8 8 9 8 8 9 10 10
Wind_Direction
197 199 199 199 197 193 193 200 205 210 212 209 202 193 186 174 166 171 174 174 181 185 185 187 194 197 189 177 171 164 158 154 151 149 147 146 144 142 142 147 157 165 172 176 178 183 186 171 161 164 166 169 170 173 182 191 207 220 230 240 239 231 225 224 203 136 152 150 148 155 158 149 125 104 105 113 119 122 119 113 108 102 89 80 69
198 199 199 198 197 193 191 196 201 203 206 202 193 186 178 165 162 168 173 175 179 183 183 181 186 192 180 167 164 164 161 156 153 152 153 154 153 151 151 152 156 164 172 181 185 189 193 187 176 174 179 188 190 190 197 205 216 225 234 241 235 230 225 220 232 253 199 177 167 168 168 158 140 119 113 117 122 126 123 119 114 102 73 4 350
197 198 199 198 196 194 190 190 195 200 200 192 185 185 181 167 162 166 172 179 181 182 182 178 180 183 176 168 166 167 166 163 162 163 164 167 168 165 166 166 168 170 170 176 184 191 198 201 199 196 196 205 212 214 219 226 232 236 238 234 225 226 224 219 231 253 239 207 186 178 172 163 156 150 147 146 148 155 162 170 183 201 241 278 291
199 198 200 198 196 194 189 184 188 192 189 184 184 187 183 171 166 169 172 180 185 185 184 180 178 180 178 175 173 172 174 174 174 177 179 183 186 185 185 185 188 193 190 185 188 193 201 207 211 214 215 220 225 228 231 233 236 234 228 217 213 221 222 216 222 238 237 220 197 181 172 165 167 176 184 191 192 189 198 214 227 233 237 250 262
200 200 200 199 196 194 188 183 182 182 183 188 188 183 181 178 175 176 180 188 193 193 190 186 184 184 183 182 180 178 181 183 186 190 193 199 203 203 202 199 200 209 213 211 210 208 210 216 221 223 223 226 231 235 236 236 233 225 216 206 204 211 213 208 206 213 218 215 199 186 180 182 202 210 202 208 221 224 224 235 246 249 250 255 262
199 197 198 198 197 196 190 183 179 178 183 189 183 174 176 180 180 187 195 198 200 201 200 196 194 194 192 190 190 189 190 195 200 203 206 213 218 218 215 213 217 228 234 236 231 221 218 226 234 237 237 236 236 238 237 231 224 216 209 203 200 203 207 205 201 198 199 203 200 197 197 200 213 227 218 216 227 240 244 254 263 264 264 264 263
195 193 200 200 197 197 193 186 181 182 186 187 183 181 184 187 192 200 201 199 205 209 209 207 205 204 203 200 200 201 202 206 210 213 217 223 227 227 225 226 232 240 247 252 248 237 231 233 238 241 246 247 242 234 230 225 221 215 209 206 207 210 213 211 205 198 197 201 206 211 217 217 221 235 235 225 232 247 253 261 269 269 266 263 260
191 191 203 205 200 198 197 197 198 198 197 196 195 193 195 201 209 209 198 197 207 217 220 217 214 211 209 207 208 209 212 215 216 216 221 226 231 232 231 232 236 242 248 253 252 248 246 247 245 240 242 248 247 236 227 223 223 223 218 213 213 216 219 219 217 211 208 211 215 220 227 232 235 242 244 237 239 248 254 262 270 271 266 263 264
190 190 196 199 198 197 197 202 207 208 206 202 198 197 202 210 212 204 199 201 208 216 225 224 219 214 210 208 211 213 214 218 221 220 223 232 237 236 234 234 237 242 248 250 249 248 250 253 252 247 243 245 246 240 233 227 223 224 225 224 222 223 225 228 228 226 224 222 220 223 230 236 239 243 245 242 241 245 251 258 265 268 267 266 268
173 181 187 191 192 194 195 198 201 203 200 196 196 201 210 211 204 199 204 211 213 216 224 225 220 216 213 211 213 215 218 221 225 228 233 245 250 246 243 243 244 246 249 249 248 247 249 252 252 251 249 246 244 241 238 234 226 221 222 225 230 232 232 233 233 232 233 231 228 228 231 236 243 248 249 246 245 246 248 252 255 259 262 265 270
141 157 176 188 193 193 190 190 194 195 193 194 200 208 214 214 212 212 214 216 218 221 224 224 221 219 220 220 220 221 223 225 229 233 239 249 254 252 252 254 254 252 252 254 253 252 252 253 252 250 249 245 241 240 239 237 229 220 217 221 227 232 234 235 235 235 238 238 237 238 243 249 256 259 258 256 254 253 254 255 256 259 262 266 271
132 138 155 181 195 194 188 189 191 191 192 197 203 207 211 215 218 218 217 216 218 221 221 221 221 222 224 227 229 230 231 232 233 237 244 250 253 254 256 259 259 256 256 257 258 257 259 260 255 249 245 242 238 236 237 234 229 224 221 220 224 229 232 235 237 239 242 242 244 247 253 258 261 260 259 258 259 260 261 263 264 266 269 272 275
137 147 151 174 193 195 193 196 196 197 201 206 209 211 216 221 220 217 217 219 219 219 220 221 223 225 226 229 232 234 234 236 238 242 248 251 253 256 259 260 260 259 259 260 260 260 263 262 254 244 240 237 233 230 231 231 231 230 228 227 228 229 232 235 237 240 241 242 245 249 253 257 259 259 258 258 261 263 264 266 269 272 276 279 282
133 147 156 169 190 200 202 204 206 210 213 214 217 219 220 220 219 217 220 222 220 218 219 221 224 226 229 231 234 236 238 240 243 247 251 253 255 257 260 261 263 265 266 265 264 264 264 259 247 238 235 231 226 225 226 228 230 232 233 235 235 231 230 231 233 235 238 240 244 247 251 254 255 257 258 259 260 262 264 267 271 276 281 284 286
124 129 132 132 152 183 200 206 211 218 221 220 219 220 218 215 215 219 224 225 222 219 221 224 225 228 231 232 234 237 241 243 246 249 253 256 257 258 260 261 265 268 269 268 266 263 258 247 235 229 228 226 224 225 226 227 228 230 233 234 232 228 227 229 232 234 237 240 243 247 251 254 256 257 258 260 263 266 269 273 278 282 286 288 289
114 119 120 115 117 126 151 184 196 206 216 218 216 219 222 221 223 227 228 228 226 221 222 228 231 233 235 235 235 238 240 243 247 250 254 256 256 256 258 261 265 268 265 262 259 253 244 232 223 220 222 223 223 222 221 221 222 222 222 222 224 228 231 234 237 240 243 246 249 253 257 260 262 263 265 267 271 275 280 284 289 291 292 294 294
102 107 110 106 105 107 117 149 166 173 184 189 189 195 201 209 221 228 229 231 231 223 221 229 237 240 242 242 241 241 243 245 248 251 253 254 254 255 258 262 266 264 255 248 244 238 232 225 219 217 218 218 218 216 214 214 215 215 217 222 230 235 238 240 243 246 251 256 259 262 265 267 269 272 275 280 284 289 294 296 298 299 300 299 298
95 100 101 96 93 94 100 112 123 136 150 152 154 167 173 179 197 212 222 229 232 230 229 235 241 246 248 247 246 247 247 249 251 252 253 254 255 256 258 260 259 251 240 235 231 228 227 224 218 215 217 218 218 217 214 213 215 221 227 233 238 241 242 246 251 256 261 264 267 270 271 273 277 281 286 292 296 300 303 304 304 303 303 302 302
88 93 96 96 95 94 97 102 105 110 117 120 130 153 164 169 180 190 200 210 217 224 231 236 242 247 248 248 250 251 251 252 252 253 254 254 255 255 253 250 245 237 231 229 227 224 223 222 219 216 218 223 225 221 217 221 229 235 236 236 237 240 245 251 256 261 264 267 270 274 278 282 286 291 295 299 302 305 307 306 305 304 304 305 308
68 76 82 91 99 101 103 107 108 107 109 109 113 127 146 166 184 192 197 201 204 211 221 229 237 245 248 248 249 252 254 254 254 253 252 251 249 246 242 238 235 231 228 227 227 227 226 224 223 221 222 226 229 228 228 235 240 239 237 236 237 241 246 252 257 262 266 271 275 279 283 288 292 296 300 303 306 307 308 306 306 306 308 309 311
44 48 48 58 83 101 109 111 109 106 104 103 107 126 157 177 192 203 210 211 210 211 218 225 230 239 248 252 251 253 256 255 251 247 244 242 239 237 235 235 234 233 231 231 231 232 232 232 229 227 226 228 231 235 237 238 237 233 231 231 234 239 244 248 254 262 268 273 279 284 288 292 295 299 302 304 306 306 305 305 306 307 308 309 310
347 345 339 328 322 315 300 260 212 225 260 267 214 225 230 224 220 223 223 220 220 222 226 228 226 228 239 250 254 256 258 254 247 241 238 237 237 236 236 238 239 240 240 239 239 239 238 238 237 237 236 233 232 233 233 231 229 226 225 227 231 238 246 253 260 268 274 279 285 290 294 297 299 301 302 303 303 303 303 304 305 307 308 309 309
316 316 311 305 300 298 294 289 283 275 272 269 267 264 260 256 253 251 245 237 235 238 242 242 239 236 236 239 247 256 258 254 248 243 239 238 238 239 241 243 246 249 250 249 247 244 241 239 240 241 239 234 230 227 223 221 221 222 224 228 233 237 245 254 261 268 274 279 284 288 291 294 296 298 300 300 300 302 304 306 307 309 310 311 311
301 301 300 299 297 294 294 295 293 289 282 278 277 275 270 266 265 266 265 263 264 267 266 262 259 256 250 242 239 246 253 254 252 249 244 242 242 243 245 247 249 252 254 253 249 244 241 241 241 241 239 234 226 219 217 218 221 225 226 227 230 236 243 251 258 263 268 273 277 281 285 288 291 294 295 297 300 302 305 307 309 310 312 313 314
297 296 297 298 297 293 291 291 291 292 290 289 289 288 284 279 275 273 274 276 278 281 282 277 273 270 265 257 247 241 245 251 254 253 251 249 247 245 245 249 250 247 246 248 245 241 241 242 243 241 237 230 222 215 214 218 221 223 224 225 230 238 245 252 257 261 265 268 272 277 281 284 288 291 293 296 299 302 305 309 311 313 313 314 315
304 301 300 301 301 300 297 295 294 293 291 291 291 289 286 282 278 276 278 280 280 280 281 280 276 271 268 268 263 252 246 247 250 253 254 254 253 249 244 243 246 241 237 238 238 237 238 241 242 238 228 220 217 216 216 218 218 216 216 220 228 238 247 253 258 261 263 266 270 274 279 282 286 291 294 298 302 305 309 312 312 313 313 313 313
310 306 303 302 301 300 301 301 302 300 295 290 286 284 282 280 278 278 278 279 279 277 275 275 276 274 270 269 267 262 257 254 255 255 253 255 263 265 252 242 242 241 238 238 237 235 235 236 238 236 226 215 213 211 209 209 210 209 210 215 223 235 247 253 257 258 258 261 264 268 276 283 289 293 298 304 308 310 312 313 313 314 313 312 314
312 309 307 306 304 303 303 303 303 302 301 297 291 285 281 279 280 281 281 280 279 278 275 274 277 281 278 271 268 268 266 264 263 262 258 257 268 282 276 253 244 240 240 241 238 235 234 233 232 230 223 216 211 201 192 195 197 197 203 211 219 237 254 256 250 244 242 247 255 265 276 286 293 299 304 308 311 312 313 315 316 318 318 319 321
315 312 310 308 308 309 309 310 309 307 305 303 298 291 284 281 279 279 280 282 283 284 282 279 280 284 284 280 277 274 271 267 266 268 268 264 264 272 280 272 258 249 247 247 241 234 233 235 232 223 214 208 202 190 188 192 189 186 193 199 221 265 270 260 245 235 235 243 255 271 287 295 301 305 308 310 312 314 316 319 321 324 326 327 327
319 316 315 315 314 315 316 316 319 319 319 318 315 310 301 291 284 279 276 275 277 281 284 285 284 285 284 283 283 283 280 276 270 268 269 266 261 265 275 279 276 268 258 251 245 236 229 231 236 229 216 206 196 189 197 201 191 187 193 196 253 276 274 265 252 247 252 263 278 293 301 304 305 306 309 313 316 319 322 324 327 330 331 330 328
319 319 320 321 322 325 328 331 336 341 344 346 348 349 345 328 299 284 278 274 271 271 275 279 282 284 285 284 283 283 284 284 280 274 268 263 260 267 273 274 277 279 266 251 249 243 230 226 232 233 223 214 207 205 213 221 222 221 221 224 240 256 262 260 261 271 282 290 298 301 298 299 304 310 316 320 323 324 325 328 331 332 330 327 325
323 329 338 339 338 344 353 2 10 17 20 19 14 8 4 3 357 318 285 281 279 275 272 273 275 277 280 284 285 284 283 282 281 277 270 262 258 262 268 268 271 272 262 252 251 247 234 227 227 226 223 219 219 221 225 227 229 231 228 227 234 245 250 253 266 287 294 295 296 293 292 301 312 320 324 325 324 323 324 328 331 331 326 324 324
43 50 48 41 32 34 38 38 37 36 31 22 16 9 3 360 357 351 334 310 299 289 282 279 277 276 276 278 280 283 283 283 281 276 268 260 255 255 260 263 263 260 254 251 251 249 240 233 229 227 227 228 231 233 232 227 226 227 225 223 226 235 242 251 270 284 289 292 292 290 295 309 319 323 324 322 319 320 324 328 330 327 323 322 324
87 81 75 71 68 64 60 52 41 32 23 16 11 6 1 355 349 343 337 328 319 308 296 288 285 284 281 277 275 276 278 278 279 277 271 263 255 253 255 254 251 248 247 248 250 248 243 240 237 234 232 233 235 236 232 226 222 221 220 219 222 228 235 246 263 276 283 289 290 292 300 312 318 319 317 315 316 320 325 328 327 325 322 321 322
88 84 79 76 73 66 56 45 34 24 18 14 10 3 358 353 348 342 337 331 323 315 307 298 290 288 288 284 279 277 278 276 274 273 273 269 260 254 251 246 241 239 240 243 246 244 241 241 241 239 237 236 234 231 227 222 219 216 216 218 222 227 235 243 256 270 280 284 286 292 302 310 313 312 310 312 317 322 325 327 326 323 322 319 317
90 80 73 68 61 50 38 28 22 20 17 12 7 2 357 353 349 344 339 333 325 317 310 301 292 285 285 287 285 283 284 282 275 269 268 269 265 258 254 252 249 246 245 246 247 246 243 241 241 241 239 234 227 223 221 220 218 215 216 220 222 227 234 242 252 263 272 277 282 290 301 308 310 308 309 314 319 322 324 324 324 323 320 314 310
91 76 64 54 40 27 20 15 14 16 16 10 4 359 356 354 350 346 340 334 327 320 314 308 299 289 281 279 283 287 289 289 284 275 268 267 267 263 257 256 258 259 257 253 251 250 251 249 243 238 233 229 223 219 219 220 219 219 221 221 220 223 231 237 246 257 265 273 283 293 302 307 308 309 312 317 319 320 321 322 322 323 323 311 306
87 72 56 39 23 10 6 11 15 14 10 5 360 357 355 353 351 347 342 335 329 324 323 322 318 307 292 282 280 285 290 291 291 286 279 273 273 272 266 258 254 252 251 253 254 255 257 255 246 234 227 224 221 216 215 217 216 214 213 210 210 216 225 232 242 255 268 279 289 295 299 305 310 313 316 318 318 318 319 319 320 325 324 310 303
69 56 38 25 16 7 6 14 20 14 5 1 358 356 355 355 354 351 346 340 333 328 330 335 330 317 308 301 290 287 292 296 295 292 286 279 276 278 278 270 260 249 242 245 250 250 252 252 244 229 220 217 213 210 211 210 204 201 202 205 208 215 224 235 248 263 276 284 287 289 293 303 312 316 316 316 316 316 317 317 319 323 325 318 311
48 37 26 18 15 12 13 21 23 11 2 360 359 358 359 360 359 357 353 348 344 340 336 334 328 320 316 313 302 291 290 295 296 294 289 281 278 278 277 270 261 249 239 239 241 239 239 238 227 213 208 209 208 207 205 202 202 207 210 208 210 217 228 242 256 266 275 280 281 284 294 305 311 314 313 313 312 312 313 315 318 323 324 318 313
17 24 19 13 16 20 26 33 29 19 11 6 3 3 5 6 4 1 358 356 356 357 344 323 317 321 326 325 318 305 294 292 295 295 290 283 277 273 265 256 245 234 234 240 242 238 232 225 217 211 211 214 217 219 216 210 208 209 204 197 201 219 234 246 258 264 269 275 279 286 297 303 307 309 309 307 307 308 308 312 319 321 310 302 306
345 16 17 10 17 27 35 36 33 28 23 18 12 9 10 10 6 2 4 7 7 3 351 328 315 318 325 329 327 316 304 301 304 305 307 312 305 278 261 252 243 231 224 228 235 239 238 229 220 216 218 223 227 237 241 218 201 193 185 182 194 222 237 246 255 258 263 271 279 288 296 300 302 304 302 301 302 302 303 311 319 309 290 300 311
313 352 11 5 11 27 34 33 32 28 24 22 19 15 14 13 11 9 17 28 29 23 15 3 343 330 330 341 347 337 317 302 297 307 360 16 4 341 297 250 228 211 200 208 224 232 249 248 227 211 207 219 221 216 199 184 179 180 185 190 199 218 231 241 249 254 262 274 282 289 294 296 298 298 297 298 298 294 298 311 316 277 289 315 321
240 245 321 349 359 27 35 28 24 22 21 20 19 17 17 19 19 20 31 42 42 39 37 34 28 22 18 19 19 15 6 341 277 234 47 21 358 352 19 98 191 184 170 171 179 157 100 45 196 176 164 166 165 155 155 163 171 181 190 192 200 218 228 238 251 261 270 278 284 289 292 293 296 297 295 296 294 289 294 302 290 262 300 320 319
220 227 245 331 5 27 27 11 8 11 13 15 17 17 18 22 24 27 37 47 47 45 45 43 41 42 45 43 37 31 27 25 24 39 45 38 32 43 99 165 167 147 129 120 111 98 92 102 129 144 148 152 155 159 166 173 178 181 180 187 208 224 235 249 262 270 275 279 283 288 291 293 297 297 296 298 295 289 289 287 266 268 305 318 316
199 217 208 225 344 359 2 354 351 355 359 6 12 12 13 18 23 28 36 45 46 44 42 40 39 40 41 40 37 33 31 32 37 41 43 52 74 87 99 125 127 114 106 106 107 107 116 136 150 154 155 159 168 179 186 189 191 189 193 209 226 239 254 265 269 273 278 281 284 288 289 291 295 300 305 309 303 294 288 273 251 264 304 316 317
190 215 85 345 319 331 343 344 341 339 344 354 3 6 8 13 18 26 36 43 46 44 40 36 34 35 35 35 35 37 36 36 38 40 43 71 102 103 100 101 105 107 111 117 124 132 142 150 158 166 171 175 186 195 195 192 194 198 213 239 254 262 266 268 270 276 281 283 285 283 279 282 292 303 315 319 313 303 292 266 237 246 297 311 311
227 309 343 323 317 323 331 336 337 332 331 340 352 357 360 4 9 22 39 44 45 47 46 41 36 35 35 35 36 39 42 44 47 52 64 90 108 112 114 117 119 122 126 131 136 143 151 156 162 169 170 169 173 179 185 197 215 235 254 266 266 265 266 269 276 283 284 282 281 276 273 278 287 295 308 317 316 313 303 275 237 235 277 302 301
233 244 276 297 306 311 315 322 329 325 320 329 342 347 350 355 1 10 39 50 47 47 50 48 44 43 43 41 42 45 50 55 61 69 78 88 96 103 110 117 123 129 136 143 148 152 154 155 156 158 160 162 170 186 209 234 252 260 265 265 263 266 274 278 282 285 282 277 277 275 274 280 285 287 295 303 306 310 312 298 255 239 264 293 300
239 251 270 283 288 292 294 297 305 310 312 322 333 337 340 348 354 356 8 49 55 48 47 49 48 47 47 49 52 54 59 63 70 75 81 87 94 100 107 114 121 129 136 143 147 151 154 157 158 160 164 166 171 208 249 260 260 259 264 270 273 277 280 279 278 275 271 269 275 280 282 286 288 288 288 290 292 297 301 297 279 259 259 276 296
246 254 269 281 285 288 289 290 296 305 310 313 318 325 333 342 347 350 351 351 145 87 55 53 54 50 47 49 52 55 60 65 69 71 73 76 80 89 104 123 139 149 156 163 167 171 176 181 183 187 198 205 225 251 257 267 269 273 282 285 282 281 279 275 271 269 269 273 280 285 288 290 291 289 287 285 286 288 289 288 287 278 264 266 287